Location: Unspecified
(0.0000°N, 0.0000°E)
Time: 19:35:49
(UTC+00:00)

Gonets-D1 - Visible Passes

Search period start: 18 May 2026 00:00
Search period end: 28 May 2026 00:00
Orbit: 1397 x 1415 km, 82.6° (Epoch: 18 May)

Date Brightness Start Highest point End Pass type
(mag) Time Alt. Az. Time Alt. Az. Time Alt. Az.
18 May 8.4 04:43:14 10° SSE 04:51:09 46° E 04:58:58 10° NNE visible
18 May 10.1 19:04:02 10° WNW 19:06:23 11° W 19:08:45 10° WSW visible
19 May 9.9 03:37:01 10° ESE 03:38:29 10° E 03:39:57 10° E visible
19 May 7.3 05:24:37 10° S 05:32:58 75° W 05:41:17 10° N visible
20 May 8.9 04:13:07 10° SSE 04:20:21 32° E 04:27:30 10° NNE visible
20 May 9.8 18:30:23 10° NW 18:35:35 18° W 18:40:50 10° SW visible
21 May 7.4 04:53:48 10° S 05:02:11 80° E 05:10:30 10° N visible
22 May 9.3 03:43:25 10° SE 03:49:33 23° E 03:55:38 10° NE visible
23 May 7.8 04:23:12 10° S 04:31:24 58° E 04:39:30 10° NNE visible
24 May 9.6 03:14:26 10° SE 03:18:45 15° E 03:23:02 10° ENE visible
24 May 7.3 05:05:01 10° SSW 05:13:13 60° W 05:21:22 10° N visible
25 May 8.4 03:52:52 10° SSE 04:00:36 41° E 04:08:15 10° NNE visible
26 May 7.2 04:34:03 10° S 04:42:26 82° W 04:50:46 10° N visible
27 May 8.8 03:22:52 10° SSE 03:29:48 29° E 03:36:41 10° NE visible
27 May 7.9 05:17:00 10° SSW 05:24:15 33° W 05:31:30 10° NNW visible
